• In Hungary
  • List of Countries
  • For 7 days
  • Water Temperature
  • Satellite Maps
  • Weather Map
  • News
  • Weather Widgets
  • user-avatar
    Login

    Hourly Weather Voyteli

    Today, 13 December, Wednesday

    Time Temperature Precipitation Wind Pressure Humidity
    00:00 0°C° 0 mm 5 mps 729 mmHg 88%
    01:00 -1°C° 0 mm 5 mps 730 mmHg 86%
    02:00 -1°C° 0 mm 4 mps 730 mmHg 86%
    03:00 -1°C° 0 mm 4 mps 730 mmHg 85%
    04:00 -2°C° 0 mm 5 mps 730 mmHg 84%
    05:00 -2°C° 0 mm 5 mps 731 mmHg 84%
    06:00 -2°C° 0 mm 5 mps 731 mmHg 84%
    07:00 -2°C° 0 mm 5 mps 732 mmHg 85%
    08:00 -3°C° 0 mm 4 mps 732 mmHg 86%
    09:00 -2°C° 0 mm 4 mps 733 mmHg 86%
    10:00 -2°C° 0 mm 4 mps 733 mmHg 86%
    11:00 -2°C° 0 mm 4 mps 734 mmHg 86%
    12:00 -2°C° 0 mm 4 mps 734 mmHg 87%
    13:00 -1°C° 0 mm 3 mps 734 mmHg 87%
    14:00 -1°C° 0 mm 3 mps 734 mmHg 87%
    15:00 -2°C° 0 mm 3 mps 734 mmHg 89%
    16:00 -4°C° 0 mm 3 mps 734 mmHg 91%
    17:00 -4°C° 0 mm 2 mps 734 mmHg 92%
    18:00 -4°C° 0 mm 2 mps 734 mmHg 92%
    19:00 -4°C° 0 mm 2 mps 734 mmHg 92%
    20:00 -5°C° 0 mm 2 mps 734 mmHg 92%
    21:00 -5°C° 0 mm 2 mps 734 mmHg 92%
    22:00 -5°C° 0 mm 2 mps 734 mmHg 91%
    23:00 -5°C° 0 mm 2 mps 733 mmHg 91%

    Tomorrow, 14 December, Thursday

    Time Temperature Precipitation Wind Pressure Humidity
    00:00 -5°C° 0 mm 2 mps 733 mmHg 91%
    01:00 -5°C° 0 mm 2 mps 733 mmHg 91%
    02:00 -6°C° 0 mm 3 mps 732 mmHg 91%
    03:00 -6°C° 0 mm 3 mps 732 mmHg 92%
    04:00 -7°C° 0 mm 3 mps 731 mmHg 92%
    05:00 -7°C° 0 mm 3 mps 731 mmHg 92%
    06:00 -8°C° 0 mm 4 mps 730 mmHg 93%
    07:00 -8°C° 0 mm 4 mps 729 mmHg 93%
    08:00 -8°C° 0 mm 4 mps 729 mmHg 94%
    09:00 -7°C° 0 mm 5 mps 728 mmHg 93%
    10:00 -6°C° 0 mm 5 mps 728 mmHg 92%
    11:00 -5°C° 0 mm 5 mps 728 mmHg 91%
    12:00 -5°C° 0 mm 6 mps 727 mmHg 90%
    13:00 -4°C° 0 mm 6 mps 726 mmHg 89%
    14:00 -3°C° 0 mm 7 mps 725 mmHg 88%
    15:00 -3°C° 0.1 mm 7 mps 725 mmHg 87%
    16:00 -3°C° 0.1 mm 6 mps 724 mmHg 87%
    17:00 -3°C° 0.1 mm 6 mps 724 mmHg 87%
    18:00 -3°C° 0.1 mm 6 mps 723 mmHg 88%
    19:00 -2°C° 0.1 mm 6 mps 723 mmHg 88%
    20:00 -2°C° 0.1 mm 6 mps 723 mmHg 89%
    21:00 -2°C° 0.3 mm 6 mps 722 mmHg 89%
    22:00 -2°C° 0.3 mm 6 mps 722 mmHg 89%
    23:00 -2°C° 0.3 mm 6 mps 722 mmHg 89%

    Day after tomorrow, 15 December, Friday

    Time Temperature Precipitation Wind Pressure Humidity
    00:00 -2°C° 0.1 mm 6 mps 722 mmHg 87%
    01:00 -2°C° 0.1 mm 6 mps 722 mmHg 85%
    02:00 -2°C° 0.1 mm 7 mps 722 mmHg 84%
    03:00 -2°C° 0.2 mm 7 mps 722 mmHg 83%
    04:00 -3°C° 0.2 mm 7 mps 723 mmHg 83%
    05:00 -3°C° 0.2 mm 7 mps 723 mmHg 83%
    06:00 -3°C° 0 mm 6 mps 724 mmHg 84%
    07:00 -4°C° 0 mm 6 mps 724 mmHg 85%
    08:00 -5°C° 0 mm 5 mps 725 mmHg 86%
    09:00 -5°C° 0 mm 5 mps 725 mmHg 84%
    10:00 -5°C° 0 mm 5 mps 726 mmHg 83%
    11:00 -4°C° 0 mm 5 mps 726 mmHg 82%
    12:00 -4°C° 0 mm 5 mps 726 mmHg 81%
    13:00 -4°C° 0 mm 5 mps 725 mmHg 80%
    14:00 -4°C° 0 mm 5 mps 725 mmHg 79%
    15:00 -2°C° 0 mm 5 mps 725 mmHg 79%
    16:00 -3°C° 0 mm 6 mps 724 mmHg 80%
    17:00 -3°C° 0 mm 6 mps 724 mmHg 81%
    18:00 -3°C° 0.7 mm 6 mps 723 mmHg 85%
    19:00 -3°C° 0.7 mm 6 mps 723 mmHg 88%
    20:00 -3°C° 0.7 mm 6 mps 722 mmHg 91%
    21:00 -3°C° 0.6 mm 6 mps 722 mmHg 91%
    22:00 -2°C° 0.6 mm 6 mps 723 mmHg 91%
    23:00 -2°C° 0.6 mm 6 mps 723 mmHg 91%

    16 December, Saturday

    Time Temperature Precipitation Wind Pressure Humidity
    00:00 -2°C° 0.1 mm 6 mps 724 mmHg 90%
    01:00 -2°C° 0.1 mm 5 mps 724 mmHg 90%
    02:00 -3°C° 0.1 mm 4 mps 725 mmHg 89%
    03:00 -3°C° 0 mm 4 mps 725 mmHg 91%
    04:00 -4°C° 0 mm 3 mps 726 mmHg 92%
    05:00 -4°C° 0 mm 3 mps 726 mmHg 93%
    06:00 -3°C° 0 mm 2 mps 726 mmHg 94%
    07:00 -3°C° 0 mm 2 mps 726 mmHg 94%
    08:00 -4°C° 0 mm 2 mps 727 mmHg 94%
    09:00 -3°C° 0 mm 2 mps 727 mmHg 94%
    10:00 -3°C° 0 mm 2 mps 727 mmHg 94%
    11:00 -3°C° 0 mm 2 mps 726 mmHg 94%
    12:00 -1°C° 0 mm 1 mps 726 mmHg 94%
    13:00 0°C° 0 mm 1 mps 726 mmHg 93%
    14:00 0°C° 0 mm 1 mps 726 mmHg 93%
    15:00 0°C° 0 mm 1 mps 726 mmHg 93%
    16:00 0°C° 0 mm 1 mps 727 mmHg 94%
    17:00 -1°C° 0 mm 1 mps 727 mmHg 94%
    18:00 -1°C° 0.1 mm 1 mps 727 mmHg 94%
    19:00 -1°C° 0.1 mm 1 mps 727 mmHg 94%
    20:00 -1°C° 0.1 mm 1 mps 728 mmHg 94%
    21:00 -1°C° 0 mm 1 mps 728 mmHg 94%
    22:00 -1°C° 0 mm 1 mps 729 mmHg 94%
    23:00 -3°C° 0 mm 2 mps 729 mmHg 95%

    17 December, Sunday

    Time Temperature Precipitation Wind Pressure Humidity
    00:00 -3°C° 0 mm 2 mps 729 mmHg 94%
    01:00 -4°C° 0 mm 2 mps 730 mmHg 94%
    02:00 -4°C° 0 mm 2 mps 730 mmHg 94%
    03:00 -5°C° 0 mm 2 mps 730 mmHg 94%
    04:00 -5°C° 0 mm 2 mps 731 mmHg 94%
    05:00 -5°C° 0 mm 2 mps 731 mmHg 94%
    06:00 -5°C° 0 mm 2 mps 731 mmHg 94%
    07:00 -4°C° 0 mm 2 mps 732 mmHg 94%
    08:00 -4°C° 0 mm 2 mps 732 mmHg 94%
    09:00 -4°C° 0 mm 2 mps 732 mmHg 92%
    10:00 -3°C° 0 mm 2 mps 733 mmHg 91%
    11:00 0°C° 0 mm 1 mps 734 mmHg 89%
    12:00 0°C° 0 mm 1 mps 733 mmHg 89%
    13:00 0°C° 0 mm 1 mps 733 mmHg 88%
    14:00 0°C° 0 mm 1 mps 733 mmHg 88%
    15:00 -1°C° 0 mm 1 mps 734 mmHg 88%
    16:00 -2°C° 0 mm 1 mps 734 mmHg 89%
    17:00 -2°C° 0 mm 1 mps 734 mmHg 90%
    18:00 -2°C° 0 mm 1 mps 734 mmHg 90%
    19:00 -2°C° 0 mm 1 mps 734 mmHg 90%
    20:00 -3°C° 0 mm 1 mps 734 mmHg 91%
    21:00 -5°C° 0 mm 2 mps 734 mmHg 91%
    22:00 -5°C° 0 mm 2 mps 734 mmHg 92%
    23:00 -6°C° 0 mm 3 mps 734 mmHg 92%

    18 December, Monday

    Time Temperature Precipitation Wind Pressure Humidity
    00:00 -6°C° 0 mm 3 mps 734 mmHg 93%
    01:00 -6°C° 0 mm 3 mps 734 mmHg 93%
    02:00 -6°C° 0 mm 3 mps 734 mmHg 93%
    03:00 -7°C° 0 mm 4 mps 734 mmHg 93%
    04:00 -5°C° 0 mm 4 mps 734 mmHg 93%
    05:00 -5°C° 0 mm 4 mps 733 mmHg 93%
    06:00 -5°C° 0 mm 4 mps 733 mmHg 91%
    07:00 -6°C° 0 mm 5 mps 733 mmHg 90%
    08:00 -6°C° 0 mm 5 mps 733 mmHg 89%
    09:00 -6°C° 0 mm 5 mps 734 mmHg 88%
    10:00 -6°C° 0 mm 5 mps 734 mmHg 88%
    11:00 -6°C° 0 mm 5 mps 734 mmHg 87%
    12:00 -6°C° 0 mm 5 mps 734 mmHg 87%
    13:00 -6°C° 0 mm 5 mps 734 mmHg 86%
    14:00 -5°C° 0 mm 5 mps 734 mmHg 86%
    15:00 -6°C° 0.1 mm 5 mps 734 mmHg 86%
    16:00 -6°C° 0.1 mm 5 mps 734 mmHg 87%
    17:00 -6°C° 0.1 mm 5 mps 734 mmHg 87%
    18:00 -6°C° 0 mm 5 mps 735 mmHg 88%
    19:00 -6°C° 0 mm 5 mps 735 mmHg 88%
    20:00 -6°C° 0 mm 5 mps 735 mmHg 89%
    21:00 -6°C° 0.1 mm 5 mps 736 mmHg 89%
    22:00 -6°C° 0.1 mm 5 mps 736 mmHg 89%
    23:00 -5°C° 0.1 mm 5 mps 737 mmHg 89%
    Show more